Retour au catalogue

STARLINK-35902

ActifCommunicationsVLEO
NORAD 66626·PAYLOAD·🇺🇸 United States

Lancé Nov 23, 2025 depuis Vandenberg Space Force Base

Loading…

Prochains Passages (prochaines 24 heures)

TLE

FraisSource: CelesTrak SupGP

Époque: Sep 15, 2026, 03:58 UTC

1 66626C 25271K   26258.16576389  .00057695  00000+0  17037-2 0  2580
2 66626  53.1590 338.4080 0001293  82.7630  22.4200 15.34378314    18

Suivez STARLINK-35902 en temps réel avec AllMySat

Download on the App Store